Regional Weather Roundup
Issued by NWS Newport/Morehead, NC

Current Version | Previous Version | Text Only | Print | Product List | Glossary On
Versions: 1 2 3 4 5 6 7 8 9 10 11 12 13 14 15 16 17 18 19 20 21 22 23 24 25 26 27 28 29 30 31 32 33 34 35 36 37 38 39 40 41 42 43 44 45 46 47 48 49 50
000
ASUS42 KMHX 221622
RWRMHX
WEATHER ROUNDUP FOR EASTERN NORTH CAROLINA
NATIONAL WEATHER SERVICE NEWPORT/MOREHEAD CITY NC
1200 PM EDT WED OCT 22 2014

NOTE: "FAIR" INDICATES FEW OR NO CLOUDS BELOW 12,000 FEET
WITH NO SIGNIFICANT WEATHER AND/OR OBSTRUCTIONS TO VISIBILITY

NCZ015>017-031-032-045>047-102-103-221700-
NORTH COAST

CITY           SKY/WX    TMP DP  RH WIND       PRES   REMARKS
EDENTON        CLOUDY    56  50  79 NW13G20   29.88F
ELIZABETH CITY CLOUDY    58  50  75 NW14      29.85F
KITTY HAWK     CLOUDY    58  51  77 W12G23    29.82S
MANTEO         CLOUDY    56  50  79 W16G24    29.84F

$$

NCZ045>047-081-094-103-104-221700-
CENTRAL COAST

CITY           SKY/WX    TMP DP  RH WIND       PRES   REMARKS
FRISCO         PTSUNNY   58  51  78 NW13G20   29.87S
SWANQUARTER      N/A     63 N/A N/A NW15G28   29.85S

$$

NCZ095-097-098-100-101-221700-
SOUTHERN COAST

CITY           SKY/WX    TMP DP  RH WIND       PRES   REMARKS
BEAUFORT       MOSUNNY   63  49  60 NW18      29.92F
CEDAR ISLAND     N/A     59 N/A N/A W14G24    29.94S
JACKSONVILLE   SUNNY     63  45  51 NW14G22   29.94F
PINEY ISLAND   PTSUNNY   64  47  53 NW17G25   29.90S
WILMINGTON     SUNNY     63  44  50 NW16      29.98S


$$

NCZ011>013-027>030-043-044-078>080-089-090>093-098-221700-
COASTAL PLAIN

CITY           SKY/WX    TMP DP  RH WIND       PRES   REMARKS
AHOSKIE        CLOUDY    55  48  76 N7G16     29.92R
CLINTON        SUNNY     63  45  51 N10G20    29.99S
ELIZABETHTOWN  SUNNY     63  43  48 NW9       30.00S
GOLDSBORO      MOSUNNY   64  48  55 NW15G23   29.94S
GREENVILLE     PTSUNNY   61  48  63 NW10      29.95S
HAVELOCK       PTSUNNY   62  46  55 NW14      29.93F
KENANSVILLE    SUNNY     63  42  46 NW13G20   29.98S
KINSTON        MOSUNNY   63  45  51 NW14G23   29.96S
NEW BERN       PTSUNNY   64  46  52 W12       29.93F
RICHLANDS      MOSUNNY   63  43  48 NW9G20    29.96S
ROCKY MOUNT    MOSUNNY   62  45  53 NW18G28   29.96S
WASHINGTON     CLOUDY    58  47  69 NW12G18   29.93R
WHITEVILLE     SUNNY     62  42  47 N5        30.00S

$$

AMZ130-135-150-152-154-156-158-170-250-252-270-ANZ085-086-088-633-658-670-221700-
MARINE OBSERVATIONS

STATION/POSITION TIME  TEMP    WIND        PRES    WAVE   SWELL
                       AIR SEA DIR/SP/G            HT/PER HT/PER
                 (UTC) (F)     (DEG/KT/KT) (MB)    (FT/S) (FT/S)
CHESAPEAKE LIGHT 1600   57     310/ 26/ 29 1009.5
64 E VA BEACH    1600   60 69  300/ 23/ 27 1007.0    6/ 5   2/11
DUCK             1600   56 68  300/ 19/ 23 1009.0
2 E DUCK         1600                        N/A     3/10
10 NE DUCK       1600      71                N/A     4/ 5   2/11
OREGON INLET     1600   57 68  280/ 14/ 22 1010.3
13E OREGON INLT  1600      73                N/A     4/ 5
HATTERAS CG      1600   59 69  300/ 18/ 20 1011.8
DIAMOND BUOY     1600   61     290/ 21/ 25 1010.9    5/ 5   2/10
17 S OCRACOKE    NOT AVBL
CAPE LOOKOUT     1600   60     300/ 13/ 17 1012.9
BEAUFORT LAB     1600   61 69  330/  7/ 14 1012.4
30 SE NEW RIVER  1600   60 76  320/ 17/ 21 1013.4    4/ 5   2/ 8
5 SE WRIGHTSVLE  1600   58 73  340/ 16/ 19   N/A
225 S CAPE HAT   1526   75 79  320/ 19/ 23 1011.9    5/ 6   2/10
41 SE CHARLESTON 1600   62 79  360/ 16/ 19 1016.0    5/ 6   2/ 8

$$



USA.gov is the U.S. government's official web portal to all federal, state and local government web resources and services.